KD0ARW-13 Weather Reports


time (UTC)temp
F
wind
direction
speed
knots
gust
knots
rain 1hr
in
rain 24hr
in
rain mn
in
humidity
%
barometer
mb
20260504204752 88 359 0.0 0.0 0.00 0.00 0.00
20260504204253 86 359 0.0 0.0 0.00 0.00 0.00
20260504203754 86 80 0.0 4.3 0.00 0.00 0.00
20260504203256 87 20 0.0 0.0 0.00 0.00 0.00
20260504202757 86 8 0.0 2.6 0.00 0.00 0.00
20260504202259 87 14 2.6 3.5 0.00 0.00 0.00
20260504201801 86 325 0.0 0.0 0.00 0.00 0.00
20260504201302 87 352 0.0 4.3 0.00 0.00 0.00
20260504200804 86 311 4.3 4.3 0.00 0.00 0.00
20260504200305 86 6 0.0 4.3 0.00 0.00 0.00
20260504195308 86 301 0.0 0.0 0.00 0.00 0.00
20260504194311 87 342 0.9 7.0 0.00 0.00 0.00
20260504193314 86 359 0.0 0.0 0.00 0.00 0.00
20260504192816 86 150 5.2 0.0 0.00 0.00 0.00
20260504192317 86 170 2.6 5.2 0.00 0.00 0.00
20260504191818 84 3 0.0 0.0 0.00 0.00 0.00
20260504191320 87 0 0.9 4.3 0.00 0.00 0.00
20260504190821 85 332 0.0 0.0 0.00 0.00 0.00
20260504185822 85 311 0.0 0.0 0.00 0.00 0.00
20260504185323 84 311 0.0 0.0 0.00 0.00 0.00
20260504184825 84 342 1.7 4.3 0.00 0.00 0.00
20260504184327 86 273 0.0 0.0 0.00 0.00 0.00
20260504182831 83 273 0.0 0.0 0.00 0.00 0.00
20260504182332 85 325 1.7 2.6 0.00 0.00 0.00
20260504181335 84 346 0.0 3.5 0.00 0.00 0.00
20260504180836 83 14 7.0 4.3 0.00 0.00 0.00
20260504180338 83 359 0.0 0.0 0.00 0.00 0.00
20260504175839 83 359 0.9 0.0 0.00 0.00 0.00
20260504175341 82 10 4.3 0.0 0.00 0.00 0.00
20260504174842 86 10 0.0 0.0 0.00 0.00 0.00
20260504174343 83 10 6.1 0.0 0.00 0.00 0.00
20260504173845 83 330 5.2 7.8 0.00 0.00 0.00
20260504173346 81 42 3.5 6.1 0.00 0.00 0.00
20260504172848 84 322 0.0 0.0 0.00 0.00 0.00
20260504172349 82 347 2.6 3.5 0.00 0.00 0.00
20260504171851 82 314 1.7 4.3 0.00 0.00 0.00
20260504171352 80 359 0.0 4.3 0.00 0.00 0.00
20260504170855 80 18 2.6 7.0 0.00 0.00 0.00
20260504170355 79 297 1.7 4.3 0.00 0.00 0.00
20260504160414 76 38 2.6 4.3 0.00 0.00 0.00
20260504150931 69 353 7.0 7.0 0.00 0.00 0.00
20260504140949 60 342 7.8 9.6 0.00 0.00 0.00
20260504140451 60 359 7.0 9.6 0.00 0.00 0.00
20260504130502 54 155 0.0 0.0 0.00 0.00 0.00
20260504110525 50 155 0.0 0.0 0.00 0.00 0.00
20260504100545 51 155 0.0 0.0 0.00 0.00 0.00
20260504081616 56 155 0.0 0.0 0.00 0.00 0.00
20260504081117 57 155 0.0 0.0 0.00 0.00 0.00
20260504080619 56 155 0.0 0.0 0.00 0.00 0.00
20260504080121 57 155 0.0 0.0 0.00 0.00 0.00
20260504070139 58 155 0.0 0.0 0.00 0.00 0.00
20260504060157 60 155 0.0 0.0 0.00 0.00 0.00
20260504050714 62 186 0.0 0.0 0.00 0.00 0.00
20260504050215 62 186 0.9 0.0 0.00 0.00 0.00
20260504045717 63 158 0.0 2.6 0.00 0.00 0.00
20260504045218 62 100 0.0 0.0 0.00 0.00 0.00
20260504044720 63 100 0.0 0.0 0.00 0.00 0.00
20260504044221 63 93 0.0 0.0 0.00 0.00 0.00
20260504043723 63 100 0.0 0.0 0.00 0.00 0.00
20260504043224 63 118 0.0 0.0 0.00 0.00 0.00
20260504042726 63 101 0.0 0.0 0.00 0.00 0.00
20260504042227 63 101 0.0 0.0 0.00 0.00 0.00
20260504041729 63 155 0.0 0.0 0.00 0.00 0.00
20260504041231 63 155 0.0 0.0 0.00 0.00 0.00
20260504040732 63 155 0.0 0.0 0.00 0.00 0.00
20260504040234 64 155 0.0 0.0 0.00 0.00 0.00
20260504035735 63 155 0.0 0.0 0.00 0.00 0.00
20260504035237 63 155 0.0 0.0 0.00 0.00 0.00
20260504034738 64 155 0.0 0.0 0.00 0.00 0.00
20260504034240 64 155 0.0 0.0 0.00 0.00 0.00
20260504033742 64 155 0.0 0.0 0.00 0.00 0.00
20260504033243 65 155 0.0 0.0 0.00 0.00 0.00
20260504032745 65 155 0.0 0.0 0.00 0.00 0.00
20260504032246 65 155 0.0 0.0 0.00 0.00 0.00
20260504031748 65 155 0.0 0.0 0.00 0.00 0.00
20260504031250 66 155 0.0 0.0 0.00 0.00 0.00
20260504030751 66 155 0.0 0.0 0.00 0.00 0.00
20260504030253 66 155 0.0 0.0 0.00 0.00 0.00
20260504025754 67 155 0.0 0.0 0.00 0.00 0.00
20260504025256 67 155 0.0 0.0 0.00 0.00 0.00
20260504024757 67 155 0.0 0.0 0.00 0.00 0.00
20260504024259 67 155 0.0 0.0 0.00 0.00 0.00
20260504023801 69 155 0.0 0.0 0.00 0.00 0.00
20260504023302 70 155 0.0 0.0 0.00 0.00 0.00
20260504022804 69 155 0.0 0.0 0.00 0.00 0.00
20260504022305 68 155 0.0 0.0 0.00 0.00 0.00
20260504021807 69 155 0.0 0.0 0.00 0.00 0.00
20260504021308 69 210 0.0 0.0 0.00 0.00 0.00
20260504020810 69 210 0.0 0.0 0.00 0.00 0.00
20260504020311 70 210 0.0 0.0 0.00 0.00 0.00
20260504015813 70 210 0.0 0.0 0.00 0.00 0.00
20260504015314 70 210 0.0 0.0 0.00 0.00 0.00
20260504014816 71 210 0.0 0.0 0.00 0.00 0.00
20260504014318 71 210 0.0 0.0 0.00 0.00 0.00
20260504013819 72 210 0.0 0.0 0.00 0.00 0.00
20260504013321 72 210 0.0 0.0 0.00 0.00 0.00
20260504012822 72 210 0.0 0.0 0.00 0.00 0.00
20260504012324 72 210 0.0 0.0 0.00 0.00 0.00
20260504011825 73 210 0.0 0.0 0.00 0.00 0.00
20260504011327 73 210 0.0 0.0 0.00 0.00 0.00
20260504010330 74 210 0.0 0.0 0.00 0.00 0.00
20260504005832 75 210 0.0 0.0 0.00 0.00 0.00
20260504005333 75 210 0.0 0.0 0.00 0.00 0.00
20260504004835 76 210 0.0 0.0 0.00 0.00 0.00
20260504004336 76 210 0.0 0.0 0.00 0.00 0.00
20260504003340 77 210 0.0 0.0 0.00 0.00 0.00
20260504002841 77 210 0.0 0.0 0.00 0.00 0.00
20260504002343 78 210 0.0 0.0 0.00 0.00 0.00
20260504001844 79 210 0.0 0.0 0.00 0.00 0.00
20260504001346 79 210 0.0 0.0 0.00 0.00 0.00
20260504000847 78 210 0.0 0.0 0.00 0.00 0.00
20260504000349 78 210 0.0 0.0 0.00 0.00 0.00
20260503235851 79 210 0.0 0.0 0.00 0.00 0.00
20260503235352 79 210 0.0 0.0 0.00 0.00 0.00
20260503234854 79 210 0.0 0.0 0.00 0.00 0.00
20260503234355 78 210 0.0 0.0 0.00 0.00 0.00
20260503233857 79 210 0.0 0.0 0.00 0.00 0.00
20260503233358 78 210 0.0 0.0 0.00 0.00 0.00
20260503232900 78 167 0.0 0.0 0.00 0.00 0.00
20260503231903 79 195 1.7 0.0 0.00 0.00 0.00
20260503231405 79 176 0.9 4.3 0.00 0.00 0.00
20260503230906 80 149 0.0 0.0 0.00 0.00 0.00
20260503230408 79 149 0.0 0.0 0.00 0.00 0.00
20260503225910 79 149 0.0 0.0 0.00 0.00 0.00
20260503225411 80 149 0.0 0.0 0.00 0.00 0.00
20260503224913 80 111 0.0 0.0 0.00 0.00 0.00
20260503224414 81 111 0.9 0.0 0.00 0.00 0.00
20260503223916 81 114 0.0 0.0 0.00 0.00 0.00
20260503223418 81 166 0.0 0.0 0.00 0.00 0.00
20260503222919 81 131 0.9 0.0 0.00 0.00 0.00
20260503222421 81 219 1.7 0.0 0.00 0.00 0.00
20260503221922 81 172 0.0 0.0 0.00 0.00 0.00
20260503221424 81 181 0.9 2.6 0.00 0.00 0.00
20260503220925 82 307 0.9 0.0 0.00 0.00 0.00
20260503220427 81 146 0.0 0.0 0.00 0.00 0.00
20260503215929 80 149 0.9 0.0 0.00 0.00 0.00
20260503215430 81 150 2.6 1.7 0.00 0.00 0.00
20260503214931 81 184 0.0 0.0 0.00 0.00 0.00
20260503214433 81 159 0.0 0.0 0.00 0.00 0.00
20260503213935 81 200 5.2 6.1 0.00 0.00 0.00
20260503213436 80 103 0.0 0.0 0.00 0.00 0.00
20260503212938 81 188 3.5 5.2 0.00 0.00 0.00
20260503212439 81 131 0.0 0.0 0.00 0.00 0.00
20260503211941 82 162 0.0 2.6 0.00 0.00 0.00
20260503211442 82 162 0.9 0.0 0.00 0.00 0.00
20260503210944 83 149 0.0 0.0 0.00 0.00 0.00
20260503210445 83 149 0.0 0.0 0.00 0.00 0.00
20260503205947 83 149 0.0 0.0 0.00 0.00 0.00
20260503205449 81 155 4.3 7.0 0.00 0.00 0.00